Regional Weather Roundup
Issued by NWS Sioux Falls, SD

Home | Current Version | Previous Version | Graphics & Text | Print | Product List | Glossary On
Versions: 1 2 3 4 5 6 7 8 9 10 11 12 13 14 15 16 17 18 19 20 21 22 23 24 25 26 27 28 29 30 31 32 33 34 35 36 37 38 39 40 41 42 43 44 45 46 47 48 49 50
000
ASUS43 KFSD 191002
RWRFSD

WEATHER ROUNDUP FOR SE SOUTH DAKOTA/SW MINNESOTA/NW IOWA
NATIONAL WEATHER SERVICE SIOUX FALLS SD
400 AM CST FRI DEC 19 2014

NOTE: "FAIR" INDICATES FEW OR NO CLOUDS BELOW 12,000 FEET WITH NO
SIGNIFICANT WEATHER AND OR OBSTRUCTIONS TO VISIBILITY.


SDZ038>040-050-052>070-191100-
SOUTHEAST SOUTH DAKOTA

CITY           SKY/WX    TMP DP  RH WIND       PRES   REMARKS
CHAMBERLAIN    NOT AVBL
HURON          CLOUDY    28  25  88 S13       30.10F WCI  17
MADISON        CLOUDY    27  27 100 S14       30.11F WCI  15
MITCHELL       CLOUDY    29  26  89 S8        30.12F WCI  21
SIOUX FALLS    CLOUDY    28  25  88 S8        30.15F WCI  20
WINNER         FAIR      24  18  77 S5        30.04F WCI  18
YANKTON        CLOUDY    28  25  86 S9        30.16F WCI  20
$$

MNZ071-072-080-081-089-090-097-098-191100-
SOUTHWEST MINNESOTA

CITY           SKY/WX    TMP DP  RH WIND       PRES   REMARKS
FAIRMONT       CLOUDY    27  19  74 S8        30.21F WCI  18
JACKSON        CLOUDY    28  27  93 S6        30.19F FOG     WCI  22
LUVERNE        CLOUDY    30  28  93 S7        30.16F FOG     WCI  23
MARSHALL       CLOUDY    27  25  93 S5        30.17F WCI  21
MONTEVIDEO     CLOUDY    25  25 100 S6        30.19F WCI  18
PIPESTONE      CLOUDY    27  27 100 SW3       30.13F FOG
REDWOOD FALLS  CLOUDY    25  22  88 SE9       30.20F WCI  15
TRACY          CLOUDY    28  28  97 S3        30.16F FOG
WINDOM         CLOUDY    27  27 100 CALM      30.18F FOG
WORTHINGTON    CLOUDY    27  25  93 S8        30.17F WCI  18
$$

IAZ001>003-012>014-020>022-031-032-NEZ013-014-SDZ071-191100-
NORTHWEST IOWA

CITY           SKY/WX    TMP DP  RH WIND       PRES   REMARKS
DENISON        CLOUDY    30  30 100 S7        30.20F FOG     WCI  23
ESTHERVILLE    CLOUDY    25  23  92 S9        30.20F WCI  15
SIOUX CITY     CLOUDY    31  28  89 SE5       30.20F WCI  26
SPENCER        CLOUDY    28  26  92 S7        30.20S WCI  21
$$

ABBREVIATIONS USED IN REMARKS
   TC - TEMPERATURE IN CELSIUS
  WCI - WIND CHILL INDEX
   HX - HEAT INDEX
  VSB - VISIBILITY



USA.gov is the U.S. government's official web portal to all federal, state and local government web resources and services.